Ankara, Turkey

8:41 PM +03 on April 29, 2017 (GMT +0300)
Esenboga

Weather History for LTAC - July, 2013

Change the Weather History Date:

Thursday, July 4, 2013

  Actual Average Record
Temperature  
Mean Temperature 66 °F -  
Max Temperature 84 °F 84 °F 96 °F (1996)
Min Temperature 49 °F 55 °F 46 °F (1997)
Cooling Degree Days 2    
Growing Degree Days 16 (Base 50)    
Moisture  
Dew Point 42 °F    
Average Humidity 42    
Maximum Humidity 76    
Minimum Humidity 13    
Precipitation  
Precipitation 0.00 in - - ()
Sea Level Pressure  
Sea Level Pressure 29.94 in    
Wind  
Wind Speed 4 mph ()    
Max Wind Speed 13 mph    
Max Gust Speed -    
Visibility 7.2 miles    
Events      
Averages and records for this station are not official NWS values.
T = Trace of Precipitation, MM = Missing Value Source: Averaged Metar Reports

Daily Weather History Graph

Daily Weather History Graph

Search for Another Location

Airport or City:

Trip Planner

Search our weather history database for the weather conditions in past years. The results will help you decide how hot, cold, wet, or windy it might be!

Date:

Astronomy

Jul. 04, 2013 Rise Set
Actual Time 5:24 AM EEST 8:20 PM EEST
Civil Twilight 4:51 AM EEST 8:53 PM EEST
Nautical Twilight 4:10 AM EEST 9:34 PM EEST
Astronomical Twilight 3:22 AM EEST 10:22 PM EEST
Moon 2:27 AM EEST (7/4) 5:06 PM EEST (7/4)
Length of Visible Light 16h 01m
Length of Day
14h 56m
Waning Crescent, 13% of the Moon is Illuminated
Jul 4
Waning Crescent
Jul 8
New
Jul 16
First Quarter
Jul 22
Full
Jul 29
Last Quarter

Hourly Weather History & Observations

Time (EEST) Temp. Dew Point Humidity Pressure Visibility Wind Dir Wind Speed Gust Speed Precip Events Conditions
12:20 AM 59.0 °F 44.6 °F 59% 29.98 in - North 3.5 mph - N/A   Clear
12:50 AM 57.2 °F 44.6 °F 63% 29.98 in - Variable 2.3 mph - N/A   Clear
1:20 AM 57.2 °F 44.6 °F 63% 29.98 in - NNE 4.6 mph - N/A   Clear
1:50 AM 57.2 °F 44.6 °F 63% 29.98 in - NNW 3.5 mph - N/A   Clear
2:20 AM 55.4 °F 44.6 °F 67% 29.98 in - NNE 4.6 mph - N/A   Clear
2:50 AM 55.4 °F 44.6 °F 67% 29.98 in - North 3.5 mph - N/A   Clear
3:00 AM 56 °F 44 °F 53% 29.86 in 12 mi North 3.5 mph - -  
3:20 AM 53.6 °F 44.6 °F 72% 29.98 in - NNW 3.5 mph - N/A   Clear
3:50 AM 53.6 °F 42.8 °F 67% 29.98 in - Variable 2.3 mph - N/A   Clear
4:20 AM 53.6 °F 42.8 °F 67% 29.98 in - Variable 1.2 mph - N/A   Clear
4:50 AM 53.6 °F 44.6 °F 72% 29.98 in - NNE 3.5 mph - N/A   Clear
5:20 AM 50.0 °F 42.8 °F 76% 29.98 in - NW 1.2 mph - N/A   Clear
5:50 AM 50.0 °F 42.8 °F 76% 29.98 in - Variable 1.2 mph - N/A   Clear
6:20 AM 51.8 °F 42.8 °F 71% 29.98 in - Variable 1.2 mph - N/A   Clear
6:50 AM 53.6 °F 42.8 °F 67% 29.98 in - Variable 1.2 mph - N/A   Clear
7:20 AM 57.2 °F 44.6 °F 63% 29.98 in - Variable 1.2 mph - N/A   Clear
7:50 AM 60.8 °F 44.6 °F 55% 29.98 in - Variable 1.2 mph - N/A   Clear
8:20 AM 64.4 °F 46.4 °F 52% 29.98 in - Variable 1.2 mph - N/A   Clear
8:50 AM 66.2 °F 50.0 °F 56% 29.98 in - Variable 1.2 mph - N/A   Clear
9:00 AM 67 °F 48 °F 39% 29.86 in 12 mi NE 1.2 mph - -  
9:20 AM 68.0 °F 50.0 °F 52% 29.98 in - North 3.5 mph - N/A   Clear
9:50 AM 69.8 °F 48.2 °F 46% 29.98 in - NW 5.8 mph - N/A   Clear
10:20 AM 71.6 °F 48.2 °F 43% 29.98 in 6.2 mi Variable 3.5 mph - N/A   Partly Cloudy
10:50 AM 73.4 °F 46.4 °F 38% 29.98 in 6.2 mi Variable 3.5 mph - N/A   Partly Cloudy
11:20 AM 75.2 °F 42.8 °F 31% 29.95 in 6.2 mi Variable 4.6 mph - N/A   Partly Cloudy
11:50 AM 75.2 °F 42.8 °F 31% 29.95 in 6.2 mi ENE 6.9 mph - N/A   Partly Cloudy
12:20 PM 77.0 °F 41.0 °F 28% 29.95 in 6.2 mi Variable 5.8 mph - N/A   Partly Cloudy
12:50 PM 77.0 °F 41.0 °F 28% 29.95 in 6.2 mi Variable 4.6 mph - N/A   Partly Cloudy
1:20 PM 78.8 °F 39.2 °F 24% 29.95 in 6.2 mi East 8.1 mph - N/A   Partly Cloudy
1:50 PM 78.8 °F 41.0 °F 26% 29.92 in 6.2 mi SE 8.1 mph - N/A   Partly Cloudy
2:20 PM 80.6 °F 39.2 °F 23% 29.92 in 6.2 mi Variable 6.9 mph - N/A   Partly Cloudy
2:50 PM 80.6 °F 39.2 °F 23% 29.92 in 6.2 mi Variable 6.9 mph - N/A   Partly Cloudy
3:00 PM 81 °F 40 °F 14% 29.80 in 12 mi 6.9 mph - -   Scattered Clouds
3:20 PM 82.4 °F 39.2 °F 21% 29.92 in 6.2 mi Variable 6.9 mph - N/A   Partly Cloudy
3:50 PM 84.2 °F 39.2 °F 20% 29.92 in 6.2 mi North 3.5 mph - N/A   Partly Cloudy
4:20 PM 84.2 °F 35.6 °F 18% 29.89 in 6.2 mi Variable 6.9 mph - N/A   Partly Cloudy
4:50 PM 84.2 °F 30.2 °F 14% 29.89 in 6.2 mi Variable 4.6 mph - N/A   Partly Cloudy
5:20 PM 84.2 °F 28.4 °F 13% 29.89 in 6.2 mi WSW 8.1 mph - N/A   Partly Cloudy
5:50 PM 84.2 °F 28.4 °F 13% 29.89 in 6.2 mi SW 6.9 mph - N/A   Partly Cloudy
6:20 PM 84.2 °F 30.2 °F 14% 29.89 in 6.2 mi SW 5.8 mph - N/A   Partly Cloudy
6:50 PM 82.4 °F 28.4 °F 14% 29.89 in 6.2 mi SW 6.9 mph - N/A   Partly Cloudy
7:20 PM 82.4 °F 30.2 °F 15% 29.89 in 6.2 mi SSW 4.6 mph - N/A   Partly Cloudy
7:50 PM 80.6 °F 35.6 °F 20% 29.89 in 6.2 mi SSW 4.6 mph - N/A   Partly Cloudy
8:20 PM 77.0 °F 41.0 °F 28% 29.92 in - NE 12.7 mph - N/A   Clear
8:50 PM 75.2 °F 41.0 °F 29% 29.92 in - NE 11.5 mph - N/A   Clear
9:00 PM 75 °F 40 °F 18% 29.78 in 12 mi NE 11.5 mph - -  
9:20 PM 71.6 °F 42.8 °F 35% 29.95 in - North 9.2 mph - N/A   Clear
9:50 PM 69.8 °F 44.6 °F 40% 29.95 in - North 5.8 mph - N/A   Clear
10:20 PM 69.8 °F 46.4 °F 43% 29.95 in - North 5.8 mph - N/A   Clear
10:50 PM 66.2 °F 46.4 °F 49% 29.95 in - NNE 6.9 mph - N/A   Clear
11:20 PM 66.2 °F 46.4 °F 49% 29.98 in - North 4.6 mph - N/A   Clear
11:50 PM 64.4 °F 46.4 °F 52% 29.98 in - North 8.1 mph - N/A   Clear